Fond du Lac, WI

3:26 AM CST on January 21, 2018 (GMT -0600)
Fond du Lac County

Weather History for KFLD - October, 2012

Change the Weather History Date:

Sunday, October 7, 2012

  Actual Average Record
Temperature  
Mean Temperature 42 °F -  
Max Temperature 51 °F 61 °F 84 °F (2007)
Min Temperature 33 °F 41 °F 23 °F (1952)
Degree Days  
Heating Degree Days 23    
Moisture  
Dew Point 18 °F    
Average Humidity 42    
Maximum Humidity 59    
Minimum Humidity 24    
Precipitation  
Precipitation 0.00 in - - ()
Sea Level Pressure  
Sea Level Pressure 30.14 in    
Wind  
Wind Speed 6 mph (WSW)    
Max Wind Speed 10 mph    
Max Gust Speed 18 mph    
Visibility 10 miles    
Events      
Averages and records for this station are not official NWS values.
T = Trace of Precipitation, MM = Missing Value Source: NWS Daily Summary

Daily Weather History Graph

Daily Weather History Graph

Search for Another Location

Airport or City:

Trip Planner

Search our weather history database for the weather conditions in past years. The results will help you decide how hot, cold, wet, or windy it might be!

Date:

Astronomy

Oct. 07, 2012 Rise Set
Actual Time 6:59 AM CDT 6:23 PM CDT
Civil Twilight 6:30 AM CDT 6:51 PM CDT
Nautical Twilight 5:57 AM CDT 7:25 PM CDT
Astronomical Twilight 5:23 AM CDT 7:58 PM CDT
Moon 11:27 PM CDT (10/7) 1:44 PM CDT (10/7)
Length of Visible Light 12h 21m
Length of Day
11h 24m
Waning Gibbous, 56% of the Moon is Illuminated
Oct 7
Waning Gibbous
Oct 8
Last Quarter
Oct 15
New
Oct 21
First Quarter
Oct 29
Full

Hourly Weather History & Observations

Time (CDT) Temp. Windchill Dew Point Humidity Pressure Visibility Wind Dir Wind Speed Gust Speed Precip Events Conditions
12:53 AM 39.9 °F 34.5 °F 21.0 °F 47% 30.19 in 10.0 mi NNW 8.1 mph - N/A   Overcast
1:53 AM 37.9 °F 35.5 °F 23.0 °F 55% 30.19 in 10.0 mi WNW 3.5 mph - N/A   Overcast
2:53 AM 37.0 °F 33.3 °F 24.1 °F 59% 30.18 in 10.0 mi West 4.6 mph - N/A   Overcast
3:53 AM 37.9 °F 33.5 °F 23.0 °F 55% 30.17 in 10.0 mi West 5.8 mph - N/A   Overcast
4:53 AM 37.0 °F 33.3 °F 23.0 °F 57% 30.17 in 10.0 mi West 4.6 mph - N/A   Overcast
5:53 AM 37.0 °F 33.3 °F 23.0 °F 57% 30.17 in 10.0 mi West 4.6 mph - N/A   Overcast
6:53 AM 37.0 °F 34.5 °F 23.0 °F 57% 30.17 in 10.0 mi West 3.5 mph - N/A   Overcast
7:53 AM 37.9 °F 33.5 °F 24.1 °F 57% 30.17 in 10.0 mi West 5.8 mph - N/A   Overcast
8:53 AM 41.0 °F 35.8 °F 23.0 °F 49% 30.18 in 10.0 mi WNW 8.1 mph - N/A   Overcast
9:53 AM 43.0 °F 38.2 °F 14.0 °F 31% 30.17 in 10.0 mi WNW 8.1 mph - N/A   Clear
10:53 AM 45.0 °F - 15.1 °F 30% 30.17 in 10.0 mi Calm Calm - N/A   Partly Cloudy
11:53 AM 44.1 °F 40.8 °F 15.1 °F 31% 30.17 in 10.0 mi Variable 5.8 mph - N/A   Scattered Clouds
12:53 PM 46.9 °F - 15.1 °F 28% 30.15 in 10.0 mi Calm Calm - N/A   Scattered Clouds
1:53 PM 50.0 °F - 14.0 °F 24% 30.13 in 10.0 mi West 10.4 mph 18.4 mph N/A   Clear
2:53 PM 48.9 °F - 15.1 °F 26% 30.11 in 10.0 mi WSW 8.1 mph - N/A   Clear
3:53 PM 50.0 °F - 14.0 °F 24% 30.09 in 10.0 mi Variable 5.8 mph - N/A   Clear
4:53 PM 48.9 °F - 14.0 °F 25% 30.08 in 10.0 mi West 8.1 mph - N/A   Clear
5:53 PM 46.9 °F - 15.1 °F 28% 30.08 in 10.0 mi SW 4.6 mph - N/A   Clear
6:53 PM 43.0 °F 40.3 °F 16.0 °F 34% 30.08 in 10.0 mi SSW 4.6 mph - N/A   Clear
7:53 PM 37.9 °F 33.5 °F 17.1 °F 43% 30.09 in 10.0 mi South 5.8 mph - N/A   Clear
8:53 PM 36.0 °F 33.3 °F 17.1 °F 46% 30.09 in 10.0 mi SSW 3.5 mph - N/A   Clear
9:53 PM 35.1 °F 30.1 °F 17.1 °F 48% 30.10 in 10.0 mi SSW 5.8 mph - N/A   Clear
10:53 PM 34.0 °F 28.0 °F 17.1 °F 50% 30.10 in 10.0 mi SSW 6.9 mph - N/A   Clear
11:53 PM 33.1 °F 26.9 °F 18.0 °F 54% 30.09 in 10.0 mi SSW 6.9 mph - N/A   Clear